{"data":{"norad_id":68536,"epoch":"2026-05-25T03:04:01.664256Z","epoch_age_seconds":57788,"freshness":"FRESH","line1":"1 68536U 26068AE  26145.12779704  .00023034  00000+0  53699-3 0  9991","line2":"2 68536  53.1576 133.8305 0001050  88.9602 271.1524 15.42170416  8651","mean_motion":15.42170416,"eccentricity":0.000105,"inclination_deg":53.1576,"raan_deg":133.8305,"arg_perigee_deg":88.9602,"mean_anomaly_deg":271.1524,"bstar":0.00053699,"rev_number":865,"period_min":93.374894568072,"perigee_km":438.98908111573,"apogee_km":440.42082792618,"semimajor_km":6817.841954521,"source":"CELESTRAK","updated_at":"2026-05-25T13:38:21.958942Z"}}